DW0967 Weather Reports


Display with metric or nautical units.
time (UTC)temp
F
wind
direction
speed
MPH
gust
MPH
rain 1hr
in
rain 24hr
in
rain mn
in
humidity
%
barometer
mb
20260831001704 72 13 3.0 8.0 0.00 0.00 0.00 62 1022.0
20260831001204 72 49 5.0 12.0 0.00 0.00 0.00 60 1022.0
20260831000204 73 110 5.0 12.0 0.00 0.00 0.00 58 1021.9
20260830234704 72 0 5.0 14.0 0.00 0.00 0.00 60 1022.0
20260830234204 71 11 7.0 12.0 0.00 0.00 0.00 59 1022.0
20260830224204 74 165 2.0 6.0 0.00 0.00 0.00 47 1022.1
20260830223704 74 65 0.0 2.0 0.00 0.00 0.00 45 1021.8
20260830223204 73 58 0.0 5.0 0.00 0.02 0.00 46 1021.9
20260830220704 72 347 3.0 8.0 0.00 0.02 0.00 47 1022.3
20260830214705 69 345 6.0 12.0 0.00 0.02 0.00 52 1022.5
20260830211203 70 0 16.0 25.0 0.00 0.02 0.00 49 1022.6
20260830210204 69 0 17.0 30.0 0.00 0.02 0.00 53 1022.5
20260830193205 80 13 4.0 10.0 0.00 0.02 0.00 40 1020.3
20260830191204 82 18 3.0 10.0 0.00 0.02 0.00 40 1020.4
20260830190204 80 4 4.0 9.0 0.00 0.02 0.00 43 1020.5
20260830184704 79 6 4.0 9.0 0.00 0.02 0.00 41 1020.6
20260830181704 78 8 5.0 8.0 0.00 0.02 0.00 43 1021.0
20260830180704 78 3 3.0 7.0 0.00 0.02 0.00 43 1021.2
20260830174704 79 0 5.0 8.0 0.00 0.02 0.00 41 1021.4
20260830173704 78 16 2.0 5.0 0.00 0.02 0.00 43 1021.6
20260830173204 78 2 3.0 8.0 0.00 0.02 0.00 45 1021.7
20260830171204 78 50 4.0 8.0 0.00 0.02 0.00 45 1022.0
20260830170203 78 7 3.0 9.0 0.00 0.02 0.00 46 1021.8
20260830164704 77 20 3.0 8.0 0.00 0.02 0.00 42 1021.8
20260830163704 77 93 2.0 3.0 0.00 0.02 0.00 42 1021.8
20260830163204 77 135 2.0 5.0 0.00 0.02 0.00 42 1021.9
20260830161704 76 130 2.0 6.0 0.00 0.02 0.00 46 1021.9
20260830161204 75 87 1.0 3.0 0.00 0.02 0.00 45 1022.0
20260830160704 74 21 0.0 1.0 0.00 0.02 0.00 45 1022.1
20260830160204 74 19 0.0 5.0 0.00 0.02 0.00 45 1022.0
20260830154704 72 11 2.0 5.0 0.00 0.02 0.00 52 1022.1
20260830154204 73 0 2.0 5.0 0.00 0.02 0.00 51 1022.1
20260830153704 73 0 3.0 8.0 0.00 0.02 0.00 45 1022.2
20260830144704 70 358 2.0 3.0 0.00 0.02 0.00 52 1021.8
20260830144204 70 0 1.0 3.0 0.00 0.02 0.00 54 1021.7
20260830143703 69 0 1.0 3.0 0.00 0.02 0.00 56 1021.8
20260830141204 67 0 1.0 3.0 0.00 0.02 0.00 54 1021.8
20260830134704 65 253 0.0 2.0 0.00 0.02 0.00 56 1021.8
20260830134204 65 351 1.0 3.0 0.00 0.02 0.00 57 1021.6
20260830133704 65 0 2.0 5.0 0.00 0.02 0.00 57 1021.7
20260830131704 64 356 2.0 3.0 0.00 0.02 0.00 57 1021.5
20260830131204 64 0 3.0 6.0 0.00 0.02 0.00 58 1021.6
20260830130204 63 0 1.0 5.0 0.00 0.02 0.00 58 1021.5
20260830124204 62 0 2.0 6.0 0.00 0.02 0.00 63 1021.2
20260830123704 61 0 2.0 5.0 0.00 0.02 0.00 65 1021.2
20260830123204 61 0 2.0 6.0 0.00 0.02 0.00 68 1021.1
20260830120704 62 0 2.0 3.0 0.00 0.02 0.00 61 1020.7
20260830113203 63 0 2.0 3.0 0.00 0.02 0.00 61 1020.4
20260830111704 63 0 0.0 2.0 0.00 0.02 0.00 63 1020.4
20260830111204 63 0 1.0 3.0 0.00 0.02 0.00 59 1020.3
20260830110704 63 0 2.0 3.0 0.00 0.02 0.00 60 1020.4
20260830104204 64 348 2.0 3.0 0.00 0.02 0.00 64 1020.6
20260830101204 65 0 1.0 2.0 0.00 0.02 0.00 55 1020.4
20260830093704 66 346 2.0 6.0 0.00 0.02 0.00 54 1020.5
20260830091703 65 0 1.0 3.0 0.00 0.02 0.00 58 1020.5
20260830081204 66 0 0.0 2.0 0.00 0.02 0.00 60 1020.7
20260830080704 66 0 1.0 5.0 0.00 0.02 0.00 60 1020.7
20260830074704 66 0 0.0 2.0 0.00 0.02 0.00 58 1021.1
20260830073704 67 236 1.0 2.0 0.00 0.02 0.00 55 1021.0
20260830071204 67 0 0.0 0.0 0.00 0.02 0.00 53 1020.9
20260830070704 67 0 0.0 0.0 0.00 0.02 0.00 54 1021.1
20260830070204 68 0 0.0 3.0 0.00 0.02 0.00 53 1021.1
20260830063206 67 230 2.0 6.0 0.00 0.02 0.00 52 1021.4
20260830061703 67 356 1.0 5.0 0.00 0.02 0.00 53 1021.6
20260830061204 66 0 0.0 2.0 0.00 0.02 0.00 53 1021.7
20260830060704 66 0 0.0 2.0 0.00 0.02 0.00 54 1021.7
20260830054203 67 237 0.0 8.0 0.00 0.02 0.02 53 1022.0
20260830053704 67 357 2.0 6.0 0.00 0.02 0.02 56 1022.1
20260830051204 68 211 1.0 5.0 0.00 0.02 0.02 51 1022.3
20260830050203 68 0 2.0 6.0 0.00 0.02 0.02 51 1022.3
20260830044704 68 0 1.0 2.0 0.00 0.02 0.02 49 1022.1
20260830043204 68 0 0.0 2.0 0.00 0.02 0.02 52 1022.3
20260830041703 70 0 0.0 0.0 0.00 0.02 0.02 48 1022.5
20260830041204 71 0 1.0 3.0 0.00 0.02 0.02 46 1022.6
20260830034704 70 0 3.0 9.0 0.00 0.02 0.02 48 1022.8
20260830033703 71 0 2.0 3.0 0.00 0.02 0.02 52 1022.7
20260830024704 74 0 5.0 9.0 0.00 0.02 0.02 45 1022.6
20260830023703 74 0 6.0 15.0 0.00 0.02 0.02 44 1022.4
20260830023204 75 0 10.0 20.0 0.00 0.02 0.02 44 1022.4
20260830021205 75 0 5.0 12.0 0.00 0.02 0.02 42 1021.9
20260830014704 76 301 2.0 3.0 0.00 0.02 0.02 45 1021.3
20260830013203 76 2 6.0 12.0 0.00 0.02 0.02 48 1021.3
20260830011204 77 11 3.0 8.0 0.00 0.02 0.02 47 1020.4
20260830004704 78 4 5.0 9.0 0.00 0.02 0.02 45 1020.3
20260830004204 78 7 3.0 7.0 0.00 0.02 0.02 44 1020.3
20260830003704 78 3 4.0 7.0 0.00 0.02 0.02 42 1020.2
20260830003204 79 23 5.0 9.0 0.00 0.02 0.02 42 1020.2